Location: Arroyo de Valdeoliva
(40.1604°N, 4.9878°W)
Time: 22:30:05
(UTC+00:00)

EXPRESS MD2 - Visible Passes

Search period start: 12 March 2026 00:00
Search period end: 22 March 2026 00:00
Orbit: 258 x 2783 km, 49.8° (Epoch: 12 March)

Date Brightness Start Highest point End Pass type
(mag) Time Alt. Az. Time Alt. Az. Time Alt. Az.
12 Mar 7.6 00:47:09 10° WNW 00:53:48 27° WNW 00:53:48 27° WNW visible
12 Mar 7.0 19:50:18 10° WNW 20:05:58 60° N 20:18:02 21° ENE visible
12 Mar 6.4 21:55:37 10° WNW 22:12:43 77° NNE 22:14:28 72° ENE visible
13 Mar 7.1 00:00:50 10° WNW 00:10:53 40° WNW 00:10:53 40° WNW visible
13 Mar 7.1 19:04:24 10° W 19:19:22 60° N 19:35:05 12° ENE visible
13 Mar 6.6 21:09:36 10° WNW 21:26:26 70° NNE 21:31:30 51° E visible
13 Mar 6.7 23:14:38 10° WNW 23:27:55 58° W 23:27:55 58° W visible
14 Mar 8.0 01:21:39 10° WNW 01:24:20 15° WNW 01:24:20 15° WNW visible
14 Mar 6.8 20:23:35 10° WNW 20:39:54 65° NNE 20:48:30 34° E visible
14 Mar 6.4 22:28:29 10° WNW 22:44:55 79° WSW 22:44:55 79° WSW visible
15 Mar 7.6 00:34:24 10° WNW 00:41:20 24° W 00:41:20 24° W visible
15 Mar 7.0 19:37:32 10° WNW 19:53:13 62° N 20:05:27 21° E visible
15 Mar 6.3 21:42:21 10° WNW 21:59:25 89° NE 22:01:52 72° ESE visible
15 Mar 7.2 23:47:37 10° WNW 23:58:17 37° W 23:58:17 37° W visible
16 Mar 7.0 18:51:30 10° WNW 19:06:23 60° N 19:22:23 11° E visible
16 Mar 6.5 20:56:13 10° WNW 21:13:03 79° NNE 21:18:47 50° ESE visible
16 Mar 6.8 23:01:04 10° WNW 23:15:12 52° WSW 23:15:12 52° WSW visible
17 Mar 8.1 01:10:05 10° W 01:11:37 12° W 01:11:37 12° W visible
17 Mar 6.7 20:10:05 10° WNW 20:26:26 72° NNE 20:35:41 33° E visible
17 Mar 6.5 22:14:39 10° WNW 22:31:14 66° SW 22:32:05 66° SSW visible
18 Mar 7.7 00:21:29 10° WNW 00:28:30 21° W 00:28:30 21° W visible
18 Mar 6.9 19:23:55 10° WNW 19:39:36 66° NNE 19:52:33 20° E visible
18 Mar 6.4 21:28:18 10° WNW 21:45:08 78° SW 21:48:58 60° SSE visible
18 Mar 7.4 23:33:58 10° WNW 23:45:22 31° WSW 23:45:22 31° WSW visible
19 Mar 7.0 18:37:46 10° WNW 18:52:37 62° NNE 19:08:59 10° E visible
19 Mar 6.6 20:42:01 10° WNW 20:58:43 90° SW 21:05:49 44° SE visible
19 Mar 7.0 22:46:56 10° WNW 23:01:48 42° WSW 23:02:13 42° SW visible
20 Mar 6.7 19:55:45 10° WNW 20:12:01 81° NNE 20:22:40 28° ESE visible
20 Mar 6.7 22:00:10 10° WNW 22:16:01 53° SW 22:19:05 48° SSW visible
21 Mar 7.9 00:09:01 10° W 00:15:29 15° WSW 00:15:29 15° WSW visible
21 Mar 6.8 19:09:28 10° WNW 19:25:06 73° NNE 19:39:31 15° ESE visible
21 Mar 6.7 21:13:34 10° WNW 21:29:53 65° SW 21:35:56 44° SSE visible
21 Mar 7.6 23:20:08 10° WNW 23:31:16 23° WSW 23:32:20 23° WSW visible
